Пирр

США     44°21′46″N   100°19′51″W
темп.,
°C
ветер,
м/с
пор.,
м/с
влажн.,
%
обл.,
%
осадки,
мм/ч
давл.,
гПа
погр.,
м
18 апреля, вс
вс1801:00+6юз46518 0.0 102077
04:00+5зюз595730 0.0 1018138
07:00+4зюз5105461 0.0 1017159
10:00+11зсз694099 0.0 1014441
13:00+18зсз792856 0.0 10112056
16:00+12с121161100 0.0 1013897
19:00+4ссв71085100 0.3 1018858
22:00+6ссз2459100 0.6 1019220
19 апреля, пн
пн1901:00+3св7959100 0.6 1021623
04:00+1св5864100 0.0 1022686
07:000с4765100 0.1 1025863
10:00+1с7849100 0.0 10251431
13:00+4ссз7835100 0.0 10242120
16:00+6ссз6828100 0.0 10232617
19:00+5ссз6830100 0.0 10222256
22:00+2ссв22425 0.0 102412
20 апреля, вт
вт2001:000зюз224692 0.0 102411
04:00+1зсз475958 0.1 1023138
07:00−1зсз228088 0.1 102434
10:00+3зсз4550100 0.0 10231401
13:00+5сз4651100 0.4 10221600
16:00+6сз8938100 0.8 10212406
19:00+5ссз9104031 0.8 10211937
22:00+1с713617 0.1 1025628
21 апреля, ср
ср2101:000с477448 0.1 1027398
04:00−2сз22825 0.0 102820
07:00−3сз23755 0.0 102855
10:00+3ссз45410 0.0 10281286
13:00+6ссз452968 0.0 10272241
16:00+7ссз34265 0.0 10252240
19:00+8с34261 0.0 10241896
22:00+3ююв22350 0.0 102514
22 апреля, чт
чт2201:00+2ююз46440 0.0 102584
04:00+1ююз35490 0.0 102469
07:000ююз46530 0.0 102385
10:00+8ююз56340 0.0 1021615
13:00+13ююз57290 0.0 10181863
16:00+15ююз78285 0.0 10142419
19:00+13ююз994551 0.0 10121387
22:00+8ююз813663 0.0 1014485